K3PPP Weather Reports


time (UTC)temp
F
wind
direction
speed
knots
gust
knots
rain 1hr
in
rain 24hr
in
rain mn
in
humidity
%
barometer
mb
20260504050415 42 275 0.0 0.0 0.00 0.00 0.00 60 1014.5
20260504045913 42 271 0.9 0.9 0.00 0.00 0.00 60 1014.4
20260504045408 43 213 0.0 0.0 0.00 0.00 0.00 60 1014.5
20260504044905 43 266 0.0 0.0 0.00 0.00 0.00 59 1014.5
20260504044402 43 228 0.9 1.7 0.00 0.00 0.00 59 1014.4
20260504043900 43 225 0.9 0.9 0.00 0.00 0.00 58 1014.7
20260504043356 43 291 0.0 0.9 0.00 0.00 0.00 59 1014.5
20260504042854 42 208 0.9 1.7 0.00 0.00 0.00 59 1014.5
20260504042350 43 224 0.0 0.9 0.00 0.00 0.00 59 1014.5
20260504041846 43 277 0.9 1.7 0.00 0.00 0.00 59 1014.4
20260504041343 43 229 0.9 1.7 0.00 0.00 0.00 59 1014.2
20260504040839 42 275 1.7 1.7 0.00 0.00 0.00 60 1014.4
20260504040337 42 294 0.9 0.9 0.00 0.00 0.00 60 1014.5
20260504035832 42 301 0.0 0.0 0.00 0.00 0.00 62 1014.6
20260504035330 41 301 0.0 0.0 0.00 0.00 0.00 61 1014.5
20260504034827 41 343 0.0 0.0 0.00 0.00 0.00 63 1014.4
20260504034325 41 343 0.0 0.0 0.00 0.00 0.00 63 1014.6
20260504033821 41 343 0.0 0.0 0.00 0.00 0.00 63 1014.4
20260504033320 41 343 0.0 0.0 0.00 0.00 0.00 63 1014.5
20260504032815 41 342 0.0 0.9 0.00 0.00 0.00 62 1014.6
20260504032313 40 19 0.0 0.0 0.00 0.00 0.00 63 1014.9
20260504031810 40 19 0.0 0.0 0.00 0.00 0.00 65 1014.7
20260504031307 40 19 0.0 0.0 0.00 0.00 0.00 64 1015.0
20260504030803 40 23 0.0 0.0 0.00 0.00 0.00 64 1014.9
20260504030300 40 23 0.0 0.0 0.00 0.00 0.00 62 1014.9
20260504025756 41 23 0.0 0.0 0.00 0.00 0.00 61 1014.7
20260504025254 41 23 0.0 0.0 0.00 0.00 0.00 62 1014.7
20260504024750 41 23 0.0 0.0 0.00 0.00 0.00 61 1014.7
20260504024247 41 23 0.0 0.0 0.00 0.00 0.00 61 1014.6
20260504023744 41 23 0.0 0.0 0.00 0.00 0.00 61 1014.6
20260504023240 41 23 0.0 0.0 0.00 0.00 0.00 61 1014.6
20260504022736 41 23 0.0 0.0 0.00 0.00 0.00 60 1014.6
20260504022232 42 23 0.0 0.0 0.00 0.00 0.00 60 1014.6
20260504021730 42 23 0.0 0.0 0.00 0.00 0.00 60 1014.5
20260504021227 42 23 0.0 0.0 0.00 0.00 0.00 59 1014.7
20260504020724 42 23 0.0 0.0 0.00 0.00 0.00 60 1014.9
20260504020220 42 24 0.0 0.0 0.00 0.00 0.00 59 1014.5
20260504015716 42 24 0.0 0.0 0.00 0.00 0.00 58 1014.5
20260504015213 42 1 0.0 0.0 0.00 0.00 0.00 58 1014.5
20260504014708 43 1 0.0 0.0 0.00 0.00 0.00 58 1014.6
20260504014205 43 2 0.0 0.0 0.00 0.00 0.00 58 1014.7
20260504013703 43 1 0.0 0.0 0.00 0.00 0.00 57 1014.6
20260504013200 43 1 0.0 0.0 0.00 0.00 0.00 57 1014.5
20260504012657 43 1 0.0 0.0 0.00 0.00 0.00 57 1014.5
20260504012155 43 1 0.0 0.0 0.00 0.00 0.00 57 1014.3
20260504011652 43 1 0.0 0.0 0.00 0.00 0.00 56 1014.4
20260504011148 44 1 0.0 0.0 0.00 0.00 0.00 56 1014.4
20260504010644 44 2 0.0 0.0 0.00 0.00 0.00 55 1014.5
20260504010140 44 2 0.0 0.0 0.00 0.00 0.00 56 1014.5
20260504005637 44 1 0.0 0.0 0.00 0.00 0.00 58 1014.4
20260504005134 44 1 0.0 0.0 0.00 0.00 0.00 57 1014.5
20260504004632 44 1 0.0 0.0 0.00 0.00 0.00 57 1014.4
20260504004129 44 0 0.0 0.0 0.00 0.00 0.00 56 1014.2
20260504003625 44 1 0.0 0.0 0.00 0.00 0.00 57 1014.3
20260504003121 45 1 0.0 0.0 0.00 0.00 0.00 55 1014.4
20260504002618 45 6 0.0 0.0 0.00 0.00 0.00 56 1014.4
20260504002116 45 6 0.0 0.0 0.00 0.00 0.00 56 1014.2
20260504001614 46 5 0.0 0.0 0.00 0.00 0.00 55 1014.1
20260504001109 46 6 0.0 0.0 0.00 0.00 0.00 54 1014.3
20260504000607 46 10 0.0 0.0 0.00 0.00 0.00 52 1014.3
20260504000105 47 272 0.0 0.0 0.00 0.00 0.00 54 1014.3
20260503235603 47 272 0.0 0.0 0.00 0.00 0.00 53 1014.3
20260503235059 48 343 0.9 0.9 0.00 0.00 0.00 49 1014.4
20260503234557 48 345 0.0 0.9 0.00 0.00 0.00 47 1014.4
20260503234055 49 329 0.9 0.9 0.00 0.00 0.00 46 1014.3
20260503233551 49 289 3.5 5.2 0.00 0.00 0.00 46 1014.5
20260503233047 49 318 0.9 0.9 0.00 0.00 0.00 45 1014.4
20260503232544 49 310 1.7 1.7 0.00 0.00 0.00 46 1014.2
20260503232042 50 318 0.9 2.6 0.00 0.00 0.00 45 1014.5
20260503231539 50 311 2.6 4.3 0.00 0.00 0.00 45 1014.4
20260503231036 50 356 0.9 1.7 0.00 0.00 0.00 45 1014.3
20260503230532 51 354 0.0 0.9 0.00 0.00 0.00 45 1014.3
20260503230030 51 341 1.7 1.7 0.00 0.00 0.00 43 1014.4
20260503225527 51 2 0.9 1.7 0.00 0.00 0.00 43 1014.6
20260503225022 51 297 2.6 4.3 0.00 0.00 0.00 42 1014.3
20260503224520 51 326 4.3 5.2 0.00 0.00 0.00 42 1014.5
20260503224017 52 332 2.6 2.6 0.00 0.00 0.00 42 1014.4
20260503223515 51 335 2.6 2.6 0.00 0.00 0.00 43 1014.3
20260503223010 51 293 2.6 5.2 0.00 0.00 0.00 44 1014.2
20260503222509 51 321 1.7 1.7 0.00 0.00 0.00 43 1014.5
20260503222006 52 330 2.6 2.6 0.00 0.00 0.00 42 1014.4
20260503221504 52 254 1.7 1.7 0.00 0.00 0.00 42 1014.4
20260503221001 53 186 2.6 2.6 0.00 0.00 0.00 40 1014.5
20260503220457 54 5 1.7 2.6 0.00 0.00 0.00 40 1014.5
20260503215954 53 225 0.9 0.9 0.00 0.00 0.00 40 1014.6
20260503215451 51 41 0.9 1.7 0.00 0.00 0.00 42 1014.4
20260503214943 53 292 2.6 2.6 0.00 0.00 0.00 41 1014.6
20260503214441 53 321 3.5 6.1 0.00 0.00 0.00 40 1014.6
20260503213938 53 342 3.5 4.3 0.00 0.00 0.00 40 1014.5
20260503213437 53 309 4.3 5.2 0.00 0.00 0.00 40 1014.3
20260503212932 53 347 2.6 2.6 0.00 0.00 0.00 40 1014.3
20260503212430 52 302 3.5 4.3 0.00 0.00 0.00 41 1014.5
20260503211927 54 268 1.7 4.3 0.00 0.00 0.00 41 1014.2
20260503211424 52 172 0.9 1.7 0.00 0.00 0.00 41 1014.4
20260503210919 51 294 2.6 2.6 0.00 0.00 0.00 44 1014.5
20260503210416 52 331 1.7 2.6 0.00 0.00 0.00 42 1014.5
20260503205911 52 282 2.6 4.3 0.00 0.00 0.00 41 1014.6
20260503205409 53 318 3.5 4.3 0.00 0.00 0.00 40 1014.5
20260503204904 54 286 7.0 7.8 0.00 0.00 0.00 40 1014.5
20260503204402 51 326 2.6 4.3 0.00 0.00 0.00 43 1014.6
20260503203859 53 339 2.6 4.3 0.00 0.00 0.00 41 1014.6
20260503203356 54 31 1.7 2.6 0.00 0.00 0.00 39 1014.6
20260503202853 52 185 2.6 4.3 0.00 0.00 0.00 42 1014.6
20260503202351 53 245 0.9 0.9 0.00 0.00 0.00 42 1015.0
20260503201849 51 214 3.5 5.2 0.00 0.00 0.00 42 1015.1
20260503201346 51 73 1.7 2.6 0.00 0.00 0.00 43 1015.2
20260503200844 54 243 6.1 7.8 0.00 0.00 0.00 40 1015.2
20260503200339 51 289 0.9 1.7 0.00 0.00 0.00 44 1014.9
20260503195837 52 262 1.7 1.7 0.00 0.00 0.00 41 1015.0
20260503195333 54 239 5.2 6.1 0.00 0.00 0.00 40 1015.4
20260503194830 52 329 4.3 8.7 0.00 0.00 0.00 43 1015.2
20260503194326 53 327 1.7 1.7 0.00 0.00 0.00 42 1015.2
20260503193823 53 223 2.6 4.3 0.00 0.00 0.00 43 1015.4
20260503193319 52 303 2.6 2.6 0.00 0.00 0.00 39 1015.1
20260503192815 53 304 2.6 2.6 0.00 0.00 0.00 41 1015.5
20260503192310 54 10 3.5 5.2 0.00 0.00 0.00 40 1015.5
20260503191806 51 284 5.2 7.0 0.00 0.00 0.00 41 1015.5
20260503191304 52 289 2.6 2.6 0.00 0.00 0.00 42 1015.6
20260503190801 51 299 3.5 5.2 0.00 0.00 0.00 41 1016.0
20260503190258 51 289 2.6 4.3 0.00 0.00 0.00 40 1015.7
20260503185755 52 221 12.2 19.1 0.00 0.00 0.00 41 1015.5
20260503185250 52 337 3.5 5.2 0.00 0.00 0.00 41 1015.8
20260503184744 50 257 3.5 5.2 0.00 0.00 0.00 43 1016.0
20260503184241 50 255 3.5 4.3 0.00 0.00 0.00 44 1015.9
20260503183737 50 359 0.9 1.7 0.00 0.00 0.00 43 1015.9
20260503183235 51 355 2.6 4.3 0.00 0.00 0.00 43 1016.0
20260503182733 52 325 1.7 1.7 0.00 0.00 0.00 43 1016.0
20260503182231 51 352 2.6 4.3 0.00 0.00 0.00 41 1016.0
20260503181728 52 288 6.1 8.7 0.00 0.00 0.00 40 1015.9
20260503181225 51 284 3.5 4.3 0.00 0.00 0.00 42 1016.1
20260503180721 51 342 3.5 4.3 0.00 0.00 0.00 42 1016.1
20260503180219 52 23 0.9 0.9 0.00 0.00 0.00 44 1016.1
20260503175716 51 346 2.6 2.6 0.00 0.00 0.00 43 1016.2
20260503175214 51 266 1.7 2.6 0.00 0.00 0.00 45 1016.6
20260503174709 50 282 2.6 4.3 0.00 0.00 0.00 46 1016.2
20260503174207 51 334 2.6 4.3 0.00 0.00 0.00 42 1016.2
20260503173702 50 276 0.9 0.9 0.00 0.00 0.00 47 1016.4
20260503173159 50 228 3.5 4.3 0.00 0.00 0.00 45 1016.2
20260503172656 50 311 2.6 2.6 0.00 0.00 0.00 47 1016.4
20260503172153 49 309 3.5 5.2 0.00 0.00 0.00 47 1016.6
20260503171649 48 286 6.1 7.0 0.00 0.00 0.00 46 1016.5
20260503171147 49 1 4.3 5.2 0.00 0.00 0.00 45 1016.4
20260503170643 49 248 4.3 6.1 0.00 0.00 0.00 43 1016.5
20260503170140 49 289 6.1 7.8 0.00 0.00 0.00 44 1017.0
20260503150531 44 290 7.0 8.7 0.00 0.00 0.00 51 1017.1
20260503130921 39 322 2.6 2.6 0.00 0.00 0.00 71 1017.0
20260503130419 39 310 2.6 2.6 0.00 0.00 0.00 74 1016.8
20260503110817 30 359 0.0 0.0 0.00 0.00 0.00 99 1016.1
20260503110314 30 4 0.0 0.0 0.00 0.00 0.00 99 1015.9
20260503100240 30 333 0.0 0.0 0.00 0.00 0.00 99 1015.1
20260503090200 31 319 1.7 1.7 0.00 0.00 0.00 98 1015.0
20260503081630 30 327 0.0 0.9 0.00 0.00 0.00 97 1015.0
20260503081127 30 324 0.9 0.9 0.00 0.00 0.00 97 1014.9
20260503080623 30 335 1.7 1.7 0.00 0.00 0.00 97 1015.1
20260503080120 30 324 0.9 0.9 0.00 0.00 0.00 97 1015.0
20260503072557 31 321 0.9 0.9 0.00 0.00 0.00 95 1014.5
20260503072054 31 298 1.7 1.7 0.00 0.00 0.00 95 1014.4
20260503071551 31 323 1.7 1.7 0.00 0.00 0.00 95 1014.5
20260503071048 31 295 2.6 2.6 0.00 0.00 0.00 95 1014.4